Location: Clyde
(45.1830°S, 169.3170°E)
Time: 08:08:21
(UTC+13:00)

Gbstr 26 Del rocket - Pass Details

Date: 24 January 2019
Orbit: 493 x 1264 km, 51.8° (Epoch: 19 February)

Event Time Altitude Azimuth Distance (km) Brightness Sun altitude
Rises 23:38:31 0° 244° (WSW) 2,786 7.5 -18.5°
Reaches altitude 10° 23:40:58 10° 236° (SW) 1,814 6.5 -18.8°
Maximum altitude 23:44:47 41° 164° (SSE) 752 3.8 -19.1°
Enters shadow 23:46:51 22° 104° (ESE) 1,153 4.3 -19.3°
